H1 CPF 2 NER 2021 10 1 9 274 01 glonass106 H2 0705201 9106 32275 2021 10 1 0 0 0 2021 10 4 23 45 0 900 1 1 0 0 0 1 H9 10 0 59488 0.00000 0 11963116.182 -8561145.570 -20843476.742 10 0 59488 900.00000 0 14439415.230 -8616315.258 -19187822.644 10 0 59488 1800.00000 0 16678142.875 -8850976.017 -17159715.313 10 0 59488 2700.00000 0 18624362.752 -9226746.259 -14798538.349 10 0 59488 3600.00000 0 20233180.749 -9696545.797 -12150132.117 10 0 59488 4500.00000 0 21471425.520 -10206739.098 -9265905.768 10 0 59488 5400.00000 0 22318851.571 -10699567.068 -6201841.299 10 0 59488 6300.00000 0 22768815.473 -11115764.689 -3017408.692 10 0 59488 7200.00000 0 22828397.558 -11397253.852 225586.858 10 0 59488 8100.00000 0 22517964.668 -11489797.485 3464203.308 10 0 59488 9000.00000 0 21870192.910 -11345502.591 6635582.439 10 0 59488 9900.00000 0 20928591.874 -10925066.041 9678168.898 10 0 59488 10800.00000 0 19745592.846 -10199667.821 12532903.893 10 0 59488 11700.00000 0 18380281.590 -9152431.124 15144370.329 10 0 59488 12600.00000 0 16895871.189 -7779386.964 17461867.082 10 0 59488 13500.00000 0 15357021.103 -6089901.644 19440391.758 10 0 59488 14400.00000 0 13827114.821 -4106547.822 21041513.082 10 0 59488 15300.00000 0 12365610.190 -1864423.290 22234116.265 10 0 59488 16200.00000 0 11025573.175 590055.544 22995007.193 10 0 59488 17100.00000 0 9851498.036 3200836.611 23309364.020 10 0 59488 18000.00000 0 8877504.888 5904322.811 23171027.464 10 0 59488 18900.00000 0 8125989.791 8631784.643 22582624.208 10 0 59488 19800.00000 0 7606783.588 11311995.701 21555520.756 10 0 59488 20700.00000 0 7316854.555 13873982.295 20109608.216 10 0 59488 21600.00000 0 7240567.117 16249773.625 18272921.664 10 0 59488 22500.00000 0 7350485.590 18377038.559 16081100.766 10 0 59488 23400.00000 0 7608689.040 20201499.371 13576701.533 10 0 59488 24300.00000 0 7968541.630 21679021.920 10808372.002 10 0 59488 25200.00000 0 8376843.536 22777294.971 7829907.450 10 0 59488 26100.00000 0 8776271.171 23477028.346 4699203.422 10 0 59488 27000.00000 0 9108003.005 23772619.787 1477127.028 10 0 59488 27900.00000 0 9314419.151 23672262.720 -1773671.165 10 0 59488 28800.00000 0 9341759.632 23197490.730 -4989980.890 10 0 59488 29700.00000 0 9142627.823 22382178.429 -8109267.027 10 0 59488 30600.00000 0 8678232.136 21271041.451 -11070890.834 10 0 59488 31500.00000 0 7920270.179 19917699.443 -13817292.964 10 0 59488 32400.00000 0 6852374.818 18382384.425 -16295114.800 10 0 59488 33300.00000 0 5471060.229 16729391.568 -18456236.005 10 0 59488 34200.00000 0 3786127.319 15024380.189 -20258708.007 10 0 59488 35100.00000 0 1820510.694 13331638.614 -21667565.573 10 0 59488 36000.00000 0 -390427.159 11711427.725 -22655501.160 10 0 59488 36900.00000 0 -2800125.594 10217514.304 -23203389.544 10 0 59488 37800.00000 0 -5352528.757 8894996.947 -23300653.256 10 0 59488 38700.00000 0 -7984191.543 7778514.684 -22945462.402 10 0 59488 39600.00000 0 -10626701.474 6890912.335 -22144765.530 10 0 59488 40500.00000 0 -13209316.550 6242417.287 -20914151.318 10 0 59488 41400.00000 0 -15661710.167 5830360.982 -19277543.969 10 0 59488 42300.00000 0 -17916709.602 5639455.723 -17266738.146 10 0 59488 43200.00000 0 -19912914.961 5642614.130 -14920782.314 10 0 59488 44100.00000 0 -21597090.211 5802275.995 -12285222.083 10 0 59488 45000.00000 0 -22926227.228 6072186.028 -9411217.923 10 0 59488 45900.00000 0 -23869197.383 6399547.110 -6354554.024 10 0 59488 46800.00000 0 -24407922.185 6727457.825 -3174557.256 10 0 59488 47700.00000 0 -24538014.381 6997531.081 67052.858 10 0 59488 48600.00000 0 -24268863.323 7152582.931 3307360.897 10 0 59488 49500.00000 0 -23623161.194 7139277.642 6483475.723 10 0 59488 50400.00000 0 -22635890.333 6910616.821 9533750.199 10 0 59488 51300.00000 0 -21352814.573 6428167.022 12398976.678 10 0 59488 52200.00000 0 -19828538.022 5663931.139 15023535.015 10 0 59488 53100.00000 0 -18124212.904 4601783.969 17356470.743 10 0 59488 54000.00000 0 -16304992.542 3238410.484 19352482.676 10 0 59488 54900.00000 0 -14437336.053 1583706.241 20972801.022 10 0 59488 55800.00000 0 -12586277.436 -339378.150 22185939.209 10 0 59488 56700.00000 0 -10812772.955 -2495543.443 22968305.202 10 0 59488 57600.00000 0 -9171237.279 -4838371.029 23304660.718 10 0 59488 58500.00000 0 -7707370.952 -7312025.267 23188419.545 10 0 59488 59400.00000 0 -6456369.459 -9853359.305 22621779.190 10 0 59488 60300.00000 0 -5441588.251 -12394338.089 21615683.053 10 0 59488 61200.00000 0 -4673719.156 -14864678.630 20189613.466 10 0 59488 62100.00000 0 -4150512.179 -17194598.503 18371219.041 10 0 59488 63000.00000 0 -3857053.949 -19317558.681 16195782.897 10 0 59488 63900.00000 0 -3766590.737 -21172886.527 13705541.449 10 0 59488 64800.00000 0 -3841860.957 -22708169.622 10948866.427 10 0 59488 65700.00000 0 -4036880.550 -23881320.237 7979325.585 10 0 59488 66600.00000 0 -4299105.342 -24662223.821 4854640.259 10 0 59488 67500.00000 0 -4571878.320 -25033902.215 1635560.136 10 0 59488 68400.00000 0 -4797057.523 -24993142.665 -1615322.539 10 0 59488 69300.00000 0 -4917712.403 -24550566.197 -4834795.590 10 0 59488 70200.00000 0 -4880773.530 -23730132.672 -7960261.841 10 0 59488 71100.00000 0 -4639522.412 -22568103.737 -10930961.639 10 0 59488 72000.00000 0 -4155815.095 -21111507.772 -13689158.321 10 0 59488 72900.00000 0 -3401944.563 -19416172.054 -16181263.101 10 0 59488 73800.00000 0 -2362062.376 -17544405.372 -18358877.191 10 0 59488 74700.00000 0 -1033098.847 -15562428.994 -20179730.777 10 0 59488 75600.00000 0 574857.750 -13537664.052 -21608500.903 10 0 59488 76500.00000 0 2438739.606 -11535989.075 -22617492.809 10 0 59488 77400.00000 0 4523228.564 -9619082.328 -23187172.109 10 0 59488 78300.00000 0 6782006.323 -7841959.517 -23306538.172 10 0 59488 79200.00000 0 9159474.112 -6250808.984 -22973332.154 10 0 59488 80100.00000 0 11592870.802 -4881213.809 -22194076.153 10 0 59488 81000.00000 0 14014701.938 -3756833.858 -20983943.152 10 0 59488 81900.00000 0 16355379.282 -2888601.515 -19366460.408 10 0 59488 82800.00000 0 18545961.573 -2274463.461 -17373052.039 10 0 59488 83700.00000 0 20520883.050 -1899677.984 -15042429.487 10 0 59488 84600.00000 0 22220556.602 -1737654.198 -12419841.323 10 0 59488 85500.00000 0 23593743.406 -1751296.901 -9556196.685 10 0 59489 0.00000 0 24599590.516 -1894799.643 -6507079.257 10 0 59489 900.00000 0 25209251.975 -2115809.833 -3331668.987 10 0 59489 1800.00000 0 25407024.714 -2357873.832 -91596.561 10 0 59489 2700.00000 0 25190953.644 -2563058.579 3150252.701 10 0 59489 3600.00000 0 24572879.245 -2674638.408 6330958.157 10 0 59489 4500.00000 0 23577926.512 -2639733.198 9388784.117 10 0 59489 5400.00000 0 22243456.512 -2411785.885 12264377.025 10 0 59489 6300.00000 0 20617524.607 -1952774.172 14901916.281 10 0 59489 7200.00000 0 18756910.103 -1235062.562 17250196.290 10 0 59489 8100.00000 0 16724799.519 -242815.806 19263618.901 10 0 59489 9000.00000 0 14588220.256 1027086.692 20903077.236 10 0 59489 9900.00000 0 12415331.727 2564675.014 22136713.986 10 0 59489 10800.00000 0 10272686.622 4347068.506 22940539.849 10 0 59489 11700.00000 0 8222576.177 6339205.098 23298900.369 10 0 59489 12600.00000 0 6320569.650 8495091.091 23204782.255 10 0 59489 13500.00000 0 4613350.068 10759520.718 22659953.261 10 0 59489 14400.00000 0 3136935.869 13070195.138 21674932.687 10 0 59489 15300.00000 0 1915362.155 15360153.605 20268792.671 10 0 59489 16200.00000 0 959876.035 17560416.444 18468793.575 10 0 59489 17100.00000 0 268679.099 19602730.261 16309859.856 10 0 59489 18000.00000 0 -172772.678 21422301.094 13833905.953 10 0 59489 18900.00000 0 -390924.867 22960401.410 11089024.704 10 0 59489 19800.00000 0 -422772.502 24166741.742 8128553.596 10 0 59489 20700.00000 0 -314057.615 25001507.212 5010036.916 10 0 59489 21600.00000 0 -117093.364 25436973.197 1794104.035 10 0 59489 22500.00000 0 111692.463 25458631.864 -1456714.020 10 0 59489 23400.00000 0 314389.633 25065781.929 -4679205.979 10 0 59489 24300.00000 0 434300.901 24271556.738 -7810715.300 10 0 59489 25200.00000 0 418585.518 23102389.475 -10790363.904 10 0 59489 26100.00000 0 220737.932 21596938.249 -13560240.047 10 0 59489 27000.00000 0 -197204.144 19804516.578 -16066526.730 10 0 59489 27900.00000 0 -862816.450 17783095.562 -18260548.386 10 0 59489 28800.00000 0 -1791888.230 15596962.013 -20099715.367 10 0 59489 29700.00000 0 -2987525.277 13314130.947 -21548348.133 10 0 59489 30600.00000 0 -4439794.338 11003620.779 -22578365.601 10 0 59489 31500.00000 0 -6125924.359 8732705.058 -23169824.850 10 0 59489 32400.00000 0 -8011056.741 6564255.010 -23311302.425 10 0 59489 33300.00000 0 -10049513.829 4554283.039 -23000110.523 10 0 59489 34200.00000 0 -12186533.228 2749788.694 -22242344.411 10 0 59489 35100.00000 0 -14360396.200 1186995.691 -21052760.560 10 0 59489 36000.00000 0 -16504862.057 -109947.850 -19454488.046 10 0 59489 36900.00000 0 -18551807.562 -1129753.051 -17478578.800 10 0 59489 37800.00000 0 -20433961.896 -1874226.552 -15163405.245 10 0 59489 38700.00000 0 -22087623.529 -2357950.890 -12553916.667 10 0 59489 39600.00000 0 -23455245.926 -2607423.627 -9700768.435 10 0 59489 40500.00000 0 -24487784.314 -2659692.494 -6659340.623 10 0 59489 41400.00000 0 -25146705.503 -2560544.945 -3488664.774 10 0 59489 42300.00000 0 -25405576.720 -2362329.154 -250279.592 10 0 59489 43200.00000 0 -25251166.900 -2121499.044 2992962.320 10 0 59489 44100.00000 0 -24684014.193 -1895987.519 6178113.426 10 0 59489 45000.00000 0 -23718435.732 -1742519.320 9243352.076 10 0 59489 45900.00000 0 -22381979.101 -1713977.524 12129181.359 10 0 59489 46800.00000 0 -20714338.426 -1856935.322 14779582.701 10 0 59489 47700.00000 0 -18765780.176 -2209457.792 17143101.697 10 0 59489 48600.00000 0 -16595144.338 -2799266.937 19173845.330 10 0 59489 49500.00000 0 -14267504.131 -3642348.025 20832371.431 10 0 59489 50400.00000 0 -11851581.558 -4742056.722 22086453.391 10 0 59489 51300.00000 0 -9417026.157 -6088765.585 22911705.665 10 0 59489 52200.00000 0 -7031669.722 -7660065.959 23292058.216 10 0 59489 53100.00000 0 -4758870.836 -9421518.104 23220070.836 10 0 59489 54000.00000 0 -2655059.053 -11327919.560 22697081.275 10 0 59489 54900.00000 0 -767580.339 -13325040.103 21733184.091 10 0 59489 55800.00000 0 867067.077 -15351751.973 20347040.231 10 0 59489 56700.00000 0 2224533.559 -17342467.458 18565520.467 10 0 59489 57600.00000 0 3293401.970 -19229782.732 16423188.943 10 0 59489 58500.00000 0 4075422.452 -20947217.842 13961636.172 10 0 59489 59400.00000 0 4585188.941 -22431938.325 11228673.891 10 0 59489 60300.00000 0 4849271.766 -23627344.332 8277406.896 10 0 59489 61200.00000 0 4904843.574 -24485418.241 5165199.835 10 0 59489 62100.00000 0 4797857.411 -24968731.693 1952559.060 10 0 59489 63000.00000 0 4580854.841 -25052027.124 -1298048.358 10 0 59489 63900.00000 0 4310497.782 -24723306.688 -4523414.812 10 0 59489 64800.00000 0 4044929.537 -23984382.334 -7660827.128 10 0 59489 65700.00000 0 3841077.832 -22850863.575 -10649291.482 10 0 59489 66600.00000 0 3752014.980 -21351583.347 -13430723.663 10 0 59489 67500.00000 0 3824487.845 -19527486.162 -15951080.959 10 0 59489 68400.00000 0 4096722.812 -17430025.352 -18161413.350 10 0 59489 69300.00000 0 4596599.152 -15119136.874 -20018813.426 10 0 59489 70200.00000 0 5340268.377 -12660874.697 -21487246.815 10 0 59489 71100.00000 0 6331278.180 -10124806.640 -22538247.471 10 0 59489 72000.00000 0 7560238.209 -7581279.358 -23151464.851 10 0 59489 72900.00000 0 9005042.083 -5098666.127 -23315053.138 10 0 59489 73800.00000 0 10631636.798 -2740711.422 -23025895.584 10 0 59489 74700.00000 0 12395307.730 -564082.066 -22289660.203 10 0 59489 75600.00000 0 14242426.006 1383774.271 -21120686.155 10 0 59489 76500.00000 0 16112585.780 3066375.365 -19541703.168 10 0 59489 77400.00000 0 17941042.572 4459484.066 -17583389.475 10 0 59489 78300.00000 0 19661351.322 5551869.429 -15283776.636 10 0 59489 79200.00000 0 21208094.316 6345518.966 -12687512.468 10 0 59489 80100.00000 0 22519585.213 6855294.511 -9844996.067 10 0 59489 81000.00000 0 23540436.141 7108047.401 -6811401.382 10 0 59489 81900.00000 0 24223880.563 7141231.315 -3645607.967 10 0 59489 82800.00000 0 24533754.425 7001072.076 -409059.623 10 0 59489 83700.00000 0 24446052.373 6740372.344 2835426.991 10 0 59489 84600.00000 0 23949993.575 6416044.491 6024880.625 10 0 59489 85500.00000 0 23048551.978 6086476.310 9097396.680 10 0 59490 0.00000 0 21758428.623 5808841.336 11993337.424 10 0 59490 900.00000 0 20109465.984 5636467.618 14656489.308 10 0 59490 1800.00000 0 18143530.250 5616376.729 17035151.028 10 0 59490 2700.00000 0 15912905.535 5787096.759 19083136.549 10 0 59490 3600.00000 0 13478268.103 6176842.317 20760669.940 10 0 59490 4500.00000 0 10906324.031 6802138.599 22035156.496 10 0 59490 5400.00000 0 8267208.216 7666948.138 22881815.296 10 0 59490 6300.00000 0 5631752.301 8762337.820 23284161.232 10 0 59490 7200.00000 0 3068734.546 10066701.138 23234327.292 10 0 59490 8100.00000 0 642225.260 11546527.534 22733220.908 10 0 59490 9000.00000 0 -1590862.569 13157687.816 21790511.126 10 0 59490 9900.00000 0 -3582916.176 14847182.952 20424446.455 10 0 59490 10800.00000 0 -5297370.965 16555284.096 18661506.399 10 0 59490 11700.00000 0 -6709991.277 18217975.096 16535892.698 10 0 59490 12600.00000 0 -7809631.111 19769595.666 14088869.542 10 0 59490 13500.00000 0 -8598443.685 21145574.686 11367964.913 10 0 59490 14400.00000 0 -9091531.754 22285138.877 8426048.106 10 0 59490 15300.00000 0 -9316054.164 23133882.670 5320301.225 10 0 59490 16200.00000 0 -9309827.115 23646090.708 2111104.671 10 0 59490 17100.00000 0 -9119480.105 23786714.515 -1139141.360 10 0 59490 18000.00000 0 -8798245.455 23532919.364 -4367235.783 10 0 59490 18900.00000 0 -8403475.954 22875135.531 -7510411.525 10 0 59490 19800.00000 0 -7993996.726 21817569.048 -10507561.596 10 0 59490 20700.00000 0 -7627404.401 20378150.062 -13300431.662 10 0 59490 21600.00000 0 -7357428.762 18587920.701 -15834755.392 10 0 59490 22500.00000 0 -7231469.216 16489888.000 -18061310.119 10 0 59490 23400.00000 0 -7288410.726 14137390.000 -19936872.189 10 0 59490 24300.00000 0 -7556811.832 11592043.399 -21425053.644 10 0 59490 25200.00000 0 -8053541.387 8921358.450 -22497004.425 10 0 59490 26100.00000 0 -8782921.589 6196120.530 -23131967.044 10 0 59490 27000.00000 0 -9736413.438 3487647.109 -23317673.676 10 0 59490 27900.00000 0 -10892858.023 865033.716 -23050578.640 10 0 59490 28800.00000 0 -12219263.642 -1607497.273 -22335922.338 10 0 59490 29700.00000 0 -13672106.087 -3873035.806 -21187625.832 10 0 59490 30600.00000 0 -15199087.952 -5884111.076 -19628018.292 10 0 59490 31500.00000 0 -16741283.661 -7604418.910 -17687402.638 10 0 59490 32400.00000 0 -18235580.814 -9010079.137 -15403467.590 10 0 59490 33300.00000 0 -19617315.974 -10090371.905 -12820557.227 10 0 59490 34200.00000 0 -20822994.677 -10847923.531 -9988811.894 10 0 59490 35100.00000 0 -21792981.870 -11298335.460 -6963196.795 10 0 59490 36000.00000 0 -22474049.917 -11469273.126 -3802436.797 10 0 59490 36900.00000 0 -22821677.069 -11399053.995 -567878.075 10 0 59490 37800.00000 0 -22801999.834 -11134795.270 2677701.405 10 0 59490 38700.00000 0 -22393336.733 -10730199.948 5871309.414 10 0 59490 39600.00000 0 -21587218.933 -10243075.242 8950961.126 10 0 59490 40500.00000 0 -20388884.117 -9732688.651 11856881.143 10 0 59490 41400.00000 0 -18817212.144 -9257073.612 14532662.461 10 0 59490 42300.00000 0 -16904104.614 -8870398.750 16926359.796 10 0 59490 43200.00000 0 -14693333.568 -8620511.922 18991496.235 10 0 59490 44100.00000 0 -12238906.622 -8546762.843 20687963.907 10 0 59490 45000.00000 0 -9603016.015 -8678196.277 21982801.452 10 0 59490 45900.00000 0 -6853656.186 -9032192.208 22850833.609 10 0 59490 46800.00000 0 -4062008.163 -9613610.683 23275160.789 10 0 59490 47700.00000 0 -1299698.729 -10414477.885 23247489.346 10 0 59490 48600.00000 0 1363952.590 -11414227.446 22768296.148 10 0 59490 49500.00000 0 3864585.184 -12580487.768 21846824.102 10 0 59490 50400.00000 0 6145238.111 -13870383.302 20500908.311 10 0 59490 51300.00000 0 8158479.158 -15232296.116 18756635.687 10 0 59490 52200.00000 0 9868134.222 -16608014.681 16647843.934 10 0 59490 53100.00000 0 11250545.398 -17935180.237 14215468.948 10 0 59490 54000.00000 0 12295305.857 -19149928.316 11506752.681 10 0 59490 54900.00000 0 13005441.391 -20189614.419 8574326.358 10 0 59490 55800.00000 0 13397031.637 -20995508.839 5475186.723 10 0 59490 56700.00000 0 13498287.747 -21515346.651 2269585.231 10 0 59490 57600.00000 0 13348126.235 -21705624.666 -980147.889 10 0 59490 58500.00000 0 12994300.131 -21533547.676 -4210821.173 10 0 59490 59400.00000 0 12491167.451 -20978541.070 -7359616.672 10 0 59490 60300.00000 0 11897192.367 -20033265.243 -10365317.120 10 0 59490 61200.00000 0 11272285.778 -18704088.377 -13169500.786 10 0 59490 62100.00000 0 10675098.655 -17010997.153 -15717680.212 10 0 59490 63000.00000 0 10160383.328 -14986948.685 -17960362.331 10 0 59490 63900.00000 0 9776534.723 -12676690.651 -19854009.191 10 0 59490 64800.00000 0 9563415.655 -10135098.759 -21361880.818 10 0 59490 65700.00000 0 9550557.974 -7425100.815 -22454744.319 10 0 59490 66600.00000 0 9755815.283 -4615273.808 -23111435.992 10 0 59490 67500.00000 0 10184523.761 -1777213.696 -23319266.276 10 0 59490 68400.00000 0 10829206.181 1017213.231 -23074260.375 10 0 59490 69300.00000 0 11669831.402 3698623.809 -22381230.461 10 0 59490 70200.00000 0 12674618.362 6202762.784 -21253678.485 10 0 59490 71100.00000 0 13801350.911 8472930.136 -19713531.693 10 0 59490 72000.00000 0 14999148.394 10462091.122 -17790715.984 10 0 59490 72900.00000 0 16210617.971 12134582.555 -15522575.228 10 0 59490 73800.00000 0 17374298.545 13467345.568 -12953147.453 10 0 59490 74700.00000 0 18427293.904 14450634.636 -10132311.671 10 0 59490 75600.00000 0 19307984.634 15088174.558 -7114821.514 10 0 59490 76500.00000 0 19958704.820 15396759.986 -3959244.152 10 0 59490 77400.00000 0 20328270.942 15405315.399 -726825.010 10 0 59490 78300.00000 0 20374256.355 15153456.021 2519699.782 10 0 59490 79200.00000 0 20064915.260 14689611.032 5717320.068 10 0 59490 80100.00000 0 19380674.818 14068788.840 8803973.686 10 0 59490 81000.00000 0 18315131.915 13350079.085 11719749.973 10 0 59490 81900.00000 0 16875511.984 12593997.164 14408051.347 10 0 59490 82800.00000 0 15082569.987 11859783.540 16816690.335 10 0 59490 83700.00000 0 12969936.624 11202771.758 18898900.900 10 0 59490 84600.00000 0 10582936.151 10671936.198 20614244.689 10 0 59490 85500.00000 0 7976924.253 10307722.828 21929394.848 10 0 59491 0.00000 0 5215214.380 10140254.352 22818782.554 10 0 59491 900.00000 0 2366676.326 10187985.290 23265094.422 10 0 59491 1800.00000 0 -496890.290 10456863.946 23259610.210 10 0 59491 2700.00000 0 -3303504.524 10940036.566 22802375.949 10 0 59491 3600.00000 0 -5983757.620 11618106.908 21902207.681 10 0 59491 4500.00000 0 -8473459.404 12459940.813 20576525.889 10 0 59491 5400.00000 0 -10716068.040 13423982.705 18851023.226 10 0 59491 6300.00000 0 -12664802.712 14460029.343 16759171.251 10 0 59491 7200.00000 0 -14284351.632 15511386.780 14341575.103 10 0 59491 8100.00000 0 -15552104.624 16517320.123 11645187.975 10 0 59491 9000.00000 0 -16458859.226 17415693.002 8722400.128 10 0 59491 9900.00000 0 -17008971.190 18145685.309 5630019.985 10 0 59491 10800.00000 0 -17219943.721 18650474.119 2428167.101 10 0 59491 11700.00000 0 -17121473.468 18879763.926 -820901.161 10 0 59491 12600.00000 0 -16753994.300 18792058.520 -4054005.757 10 0 59491 13500.00000 0 -16166781.281 18356577.632 -7208280.558 10 0 59491 14400.00000 0 -15415695.934 17554736.487 -10222400.552 10 0 59491 15300.00000 0 -14560669.042 16381125.010 -13037778.947 10 0 59491 16200.00000 0 -13663028.286 14843944.633 -15599709.267 10 0 59491 17100.00000 0 -12782784.348 12964883.674 -17858429.879 10 0 59491 18000.00000 0 -11975990.613 10778436.016 -19770090.065 10 0 59491 18900.00000 0 -11292288.101 8330691.182 -21297599.068 10 0 59491 19800.00000 0 -10772739.151 5677645.981 -22411342.071 10 0 59491 20700.00000 0 -10448040.849 2883107.877 -23089749.746 10 0 59491 21600.00000 0 -10337192.972 16276.937 -23319711.056 10 0 59491 22500.00000 0 -10446675.955 -2850893.603 -23096822.012 10 0 59491 23400.00000 0 -10770172.916 -5646449.034 -22425466.108 10 0 59491 24300.00000 0 -11288846.938 -8301183.700 -21318725.366 10 0 59491 25200.00000 0 -11972161.620 -10751277.047 -19798123.897 10 0 59491 26100.00000 0 -12779210.205 -12940706.661 -17893209.015 10 0 59491 27000.00000 0 -13660497.357 -14823339.093 -15640977.843 10 0 59491 27900.00000 0 -14560098.724 -16364612.608 -13085160.207 10 0 59491 28800.00000 0 -15418107.495 -17542742.786 -10275371.434 10 0 59491 29700.00000 0 -16173265.132 -18349401.804 -7266151.117 10 0 59491 30600.00000 0 -16765665.434 -18789844.041 -4115906.189 10 0 59491 31500.00000 0 -17139418.071 -18882473.755 -885778.756 10 0 59491 32400.00000 0 -17245159.070 -18657873.917 2361539.466 10 0 59491 33300.00000 0 -17042302.182 -18157337.800 5563022.980 10 0 59491 34200.00000 0 -16500935.751 -17430965.752 8656534.856 10 0 59491 35100.00000 0 -15603284.539 -16535407.845 11582031.708 10 0 59491 36000.00000 0 -14344674.292 -15531347.906 14282727.860 10 0 59491 36900.00000 0 -12733957.617 -14480835.144 16706196.003 10 0 59491 37800.00000 0 -10793382.283 -13444575.872 18805383.139 10 0 59491 38700.00000 0 -8557906.363 -12479299.258 20539522.335 10 0 59491 39600.00000 0 -6073987.600 -11635307.842 21874922.841 10 0 59491 40500.00000 0 -3397896.347 -10954315.632 22785623.637 10 0 59491 41400.00000 0 -593621.039 -10467664.475 23253898.076 10 0 59491 42300.00000 0 2269547.750 -10194993.519 23270600.000 10 0 59491 43200.00000 0 5119655.472 -10143417.641 22835344.704 10 0 59491 44100.00000 0 7884835.472 -10307249.427 21956521.096 10 0 59491 45000.00000 0 10496061.029 -10668276.649 20651134.425 10 0 59491 45900.00000 0 12889784.061 -11196583.885 18944482.105 10 0 59491 46800.00000 0 15010351.327 -11851884.123 16869668.220 10 0 59491 47700.00000 0 16812097.894 -12585304.654 14466965.450 10 0 59491 48600.00000 0 18261030.944 -13341552.254 11783036.139 10 0 59491 49500.00000 0 19336033.877 -14061366.434 8870027.114 10 0 59491 50400.00000 0 20029540.572 -14684157.070 5784555.645 10 0 59491 51300.00000 0 20347651.922 -15150714.570 2586606.256 10 0 59491 52200.00000 0 20309690.308 -15405877.423 -661639.891 10 0 59491 53100.00000 0 19947211.343 -15401043.521 -3897019.612 10 0 59491 54000.00000 0 19302515.397 -15096418.114 -7056621.985 10 0 59491 54900.00000 0 18426722.530 -14462902.380 -10079017.517 10 0 59491 55800.00000 0 17377493.050 -13483541.884 -12905457.391 10 0 59491 56700.00000 0 16216490.760 -12154472.876 -15481018.865 10 0 59491 57600.00000 0 15006696.734 -10485325.734 -17755674.175 10 0 59491 58500.00000 0 13809687.463 -8499067.894 -19685261.920 10 0 59491 59400.00000 0 12682992.381 -6231292.223 -21232342.260 10 0 59491 60300.00000 0 11677642.041 -3728980.018 -22366919.751 10 0 59491 61200.00000 0 10836009.818 -1048789.853 -23067020.301 10 0 59491 62100.00000 0 10190037.329 1745056.947 -23319111.814 10 0 59491 63000.00000 0 9759917.381 4583206.824 -23118361.056 10 0 59491 63900.00000 0 9553288.984 7393819.982 -22468722.347 10 0 59491 64800.00000 0 9564977.348 10105322.766 -21382856.845 10 0 59491 65700.00000 0 9777289.051 12649152.926 -19881884.196 10 0 59491 66600.00000 0 10160849.343 14962384.553 -17994971.412 10 0 59491 67500.00000 0 10675945.905 16990124.565 -15758766.795 10 0 59491 68400.00000 0 11274322.241 18687581.995 -13216689.564 10 0 59491 69300.00000 0 11901345.012 20021724.755 -10418088.650 10 0 59491 70200.00000 0 12498453.901 20972455.676 -7417286.630 10 0 59491 71100.00000 0 13005790.646 21533259.657 -4272527.025 10 0 59491 72000.00000 0 13364896.269 21711295.591 -1044845.304 10 0 59491 72900.00000 0 13521362.456 21526930.015 2203114.556 10 0 59491 73800.00000 0 13427324.985 21012732.831 5408314.982 10 0 59491 74700.00000 0 13043693.471 20211977.794 8508547.360 10 0 59491 75600.00000 0 12342022.861 19176711.364 11443638.402 10 0 59491 76500.00000 0 11305947.080 17965471.585 14156616.846 10 0 59491 77400.00000 0 9932113.647 16640753.133 16594817.722 10 0 59491 78300.00000 0 8230578.958 15266325.276 18710902.913 10 0 59491 79200.00000 0 6224646.431 13904515.340 20463778.409 10 0 59491 80100.00000 0 3950153.054 12613571.669 21819390.728 10 0 59491 81000.00000 0 1454232.792 11445216.492 22751387.432 10 0 59491 81900.00000 0 -1206393.011 10442491.033 23241629.254 10 0 59491 82800.00000 0 -3967528.310 9637982.909 23280544.117 10 0 59491 83700.00000 0 -6759931.581 9052509.839 22867316.263 10 0 59491 84600.00000 0 -9511961.828 8694314.597 22009906.689 10 0 59491 85500.00000 0 -12152332.330 8558804.894 20724904.149 99